Regional Weather Roundup
Issued by NWS

Home | Current Version | Previous Version | Text Only | Print | Product List | Glossary On
Versions: 1 2 3 4 5 6 7 8 9 10 11 12 13 14 15 16 17 18 19 20 21 22 23 24 25 26 27 28 29 30 31 32 33 34 35 36 37 38 39 40 41 42 43 44 45 46 47 48 49 50
000
ASUS43 KDTX 240410
RWRMI
MICHIGAN HOURLY REGIONAL WEATHER ROUNDUP
NATIONAL WEATHER SERVICE DETROIT/PONTIAC MI
1100 PM EST TUE JAN 23 2018

NOTE: "FAIR" INDICATES FEW OR NO CLOUDS BELOW 12,000 FEET WITH NO
SIGNIFICANT WEATHER AND/OR OBSTRUCTION TO VISIBILITY.

MIZ047>049-052>055-059>063-066>070-074>076-081>083-240500-
SOUTHEAST LOWER MICHIGAN

CITY           SKY/WX    TMP DP  RH WIND       PRES   REMARKS
ADRIAN         CLOUDY    29  21  72 N12G22    30.01R WCI  19
ALMA           MOCLDY    27  21  79 NW10      30.02R WCI  17
ANN ARBOR      CLOUDY    29  21  72 W12       29.98R WCI  19
BAD AXE        CLOUDY    24  20  83 N14G21    29.96R WCI  12
CARO           CLOUDY    26  22  82 NW10      29.97R WCI  17
DETROIT CITY   CLOUDY    28  19  69 NW15G23   29.97R WCI  16
DETROIT        CLOUDY    29  20  69 NW14G24   29.99R WCI  18
FLINT          CLOUDY    27  21  78 NW7       29.99R WCI  19
GROSSE ILE     CLOUDY    30  22  70 NW15G26   29.98R WCI  19
HILLSDALE      CLOUDY    28  21  74 NW12G21   29.99S WCI  18
HOWELL         CLOUDY    28  23  81 NW15      29.98R WCI  17

CITY           SKY/WX    TMP DP  RH WIND       PRES   REMARKS
JACKSON        CLOUDY    29  21  72 W9        30.00R WCI  20
LAMBERTVILLE   CLOUDY    31  23  73 NW9G17    30.01R WCI  22
LANSING        CLOUDY    27  21  78 NW12      30.02R WCI  17
LAPEER         CLOUDY    26  20  80 NW6       29.98R WCI  19
MASON          CLOUDY    30  19  64 NW10G16   30.01R WCI  21
MONROE         CLOUDY    30  21  67 NW12G22   29.99R WCI  21
MT. CLEMENS    CLOUDY    27  22  82 NW15      29.96R WCI  15
PONTIAC        CLOUDY    26  21  81 NW10      29.95R WCI  16
PORT HOPE        N/A     26  20  77 NW21G29   29.93R WCI  12
PORT HURON     CLOUDY    25  19  80 NW13G18   29.97R WCI  13
TRI CITIES     CLOUDY    27  21  78 NW14      30.00R WCI  16
MIDLAND        CLOUDY    27  20  76 NW12G21   30.00R WCI  17
TROY           CLOUDY    28  21  74 NW15G21   29.99R WCI  16
SAGINAW HB     CLOUDY    28  23  80 NW13      29.99R WCI  18
$$
MIZ043>046-050>051-056>058-064>065-071>073-077>080-240500-
SOUTHWEST LOWER MICHIGAN

CITY           SKY/WX    TMP DP  RH WIND       PRES   REMARKS
BATTLE CREEK   CLOUDY    29  22  75 NW13      30.04R WCI  19
BENTON HARBOR  CLOUDY    32  24  72 N8        30.09R WCI  25
BIG RAPIDS     CLOUDY    25  17  74 NW10G20   30.02R WCI  14
COLDWATER      CLOUDY    31  25  78 NW7       30.03R WCI  24
FREMONT        CLOUDY    27  17  66 N12G21    30.05S WCI  17
HOLLAND        CLOUDY    29  20  69 N6        30.08R WCI  23
GRAND RAPIDS   CLOUDY    28  20  71 NW7       30.05R WCI  21
IONIA          CLOUDY    28  20  73 NW10G21   30.02R WCI  18
KALAMAZOO      CLOUDY    30  22  72 NW10      30.05R WCI  21
LUDINGTON      CLOUDY    25  17  73 N9G17     30.08R WCI  15
MARSHALL       CLOUDY    29  22  75 NW7       30.02R WCI  22
MOUNT PLEASANT CLOUDY    27  19  71 NW14G20   30.00R WCI  16
MUSKEGON       CLOUDY    29  19  66 NW14      30.08R WCI  18
SOUTH HAVEN    CLOUDY    31  24  74 N5        30.08R WCI  27
$$
MIZ016>042-240500-
NORTHERN LOWER MICHIGAN

CITY           SKY/WX    TMP DP  RH WIND       PRES   REMARKS
ALPENA         CLOUDY    21  17  84 NW10G20   29.97R WCI  10
BEAVER ISLAND  CLOUDY    20  15  82 N5        30.05R WCI  14
BELLAIRE       CLOUDY    23  18  83 N6        30.04R WCI  15
CADILLAC       CLOUDY    21  15  78 NW9G22    29.99R WCI  10
CHARLEVOIX     CLOUDY    21  18  85 NW5       30.07R WCI  15
FRANKFORT      CLOUDY    25  18  74 NW9       30.08R WCI  15
GAYLORD        CLOUDY    18  17  96 W9G18     29.96R WCI   7
GRAYLING       CLOUDY    20  14  77 NW15G21   29.99R WCI   6
HARBOR SPRINGS CLOUDY    18  15  88 NW3       30.02R
HOUGHTON LAKE  CLOUDY    21  15  78 NW17      29.98R WCI   7
MANISTEE       FLURRIES  23  17  78 NW13      30.09R WCI  11
OSCODA         CLOUDY    22  17  81 NW8       29.97R WCI  12
PELLSTON       CLOUDY    17  13  84 NW13      30.03R WCI   4
ROGERS CITY    FLURRIES  20  17  88 NW5       30.00R WCI  13
TRAVERSE CITY  CLOUDY    25  17  72 NW14G21   30.04R WCI  13
$$
MIZ007>008-015-240500-
EASTERN UPPER MICHIGAN

CITY           SKY/WX    TMP DP  RH WIND       PRES   REMARKS
KINROSS        FAIR       7   2  80 N10       30.02R WCI  -8
MACKINAC ISLAN LGT SNOW  13   9  84 N12G21    30.01R WCI  -1
NEWBERRY       FLURRIES  14  13  96 N6        30.04R WCI   5
S. S. MARIE    MOCLDY     9   1  70 NW7       30.03R WCI  -2
MUNISING         N/A     21  16  81 N15       30.09R WCI   8
$$
MIZ004>006-011>014-085-240500-
CENTRAL UPPER MICHIGAN

CITY           SKY/WX    TMP DP  RH WIND       PRES   REMARKS
MANISTIQUE     CLOUDY    19  14  79 N8        30.06R WCI   9
ESCANABA       FLURRIES  16  10  77 NW13      30.10R WCI   2
MENOMINEE      FAIR      16  12  84 NW7       30.15R WCI   6
$$
MIZ001>003-009>011-084-240500-
WESTERN UPPER MICHIGAN

CITY           SKY/WX    TMP DP  RH WIND       PRES   REMARKS
IRON MOUNTAIN  CLOUDY    13   7  77 NW8       30.11R WCI   2
HOUGHTON       CLOUDY    16   8  71 N5        30.13R WCI   9
COPPER HARBOR    N/A     19  10  68 E14       30.15R WCI   6
IRONWOOD       CLOUDY     6   3  87 CALM      30.15S
$$

ABBREVIATIONS USED IN REMARKS
   TC - TEMPERATURE IN CELSIUS
  WCI - WIND CHILL INDEX
   HX - HEAT INDEX
  VSB - VISIBILITY





USA.gov is the U.S. government's official web portal to all federal, state and local government web resources and services.